• In Italy
  • List of Countries
  • For 7 days
  • Water Temperature
  • Satellite Maps
  • Weather Map
  • Weather Widgets
  • user-avatar
    Login

    Hourly Weather Szombathely

    Today, 19 February, Monday

    Time Temperature Precipitation Wind Pressure Humidity
    00:00 -3°C° 0 mm 2 mps 750 mmHg 86%
    01:00 -3°C° 0 mm 2 mps 750 mmHg 84%
    02:00 -3°C° 0 mm 2 mps 750 mmHg 84%
    03:00 -1°C° 0 mm 1 mps 749 mmHg 84%
    04:00 -2°C° 0 mm 1 mps 749 mmHg 84%
    05:00 -2°C° 0 mm 1 mps 749 mmHg 84%
    06:00 -1°C° 0 mm 1 mps 749 mmHg 84%
    07:00 -2°C° 0 mm 0 mps 749 mmHg 83%
    08:00 0°C° 0 mm 1 mps 748 mmHg 78%
    09:00 +1°C° 0 mm 1 mps 748 mmHg 73%
    10:00 +2°C° 0 mm 1 mps 748 mmHg 68%
    11:00 +3°C° 0 mm 1 mps 747 mmHg 65%
    12:00 +2°C° 0 mm 2 mps 747 mmHg 63%
    13:00 +3°C° 0 mm 2 mps 746 mmHg 60%
    14:00 +3°C° 0 mm 2 mps 746 mmHg 62%
    15:00 +3°C° 0 mm 2 mps 745 mmHg 63%
    16:00 +3°C° 0 mm 2 mps 745 mmHg 65%
    17:00 +2°C° 0 mm 2 mps 745 mmHg 69%
    18:00 +1°C° 0 mm 1 mps 745 mmHg 74%
    19:00 0°C° 0 mm 1 mps 745 mmHg 78%
    20:00 0°C° 0 mm 1 mps 744 mmHg 79%
    21:00 0°C° 0 mm 1 mps 744 mmHg 79%
    22:00 0°C° 0 mm 1 mps 744 mmHg 80%
    23:00 0°C° 0.2 mm 1 mps 744 mmHg 82%

    Tomorrow, 20 February, Tuesday

    Time Temperature Precipitation Wind Pressure Humidity
    00:00 -2°C° 0.2 mm 2 mps 744 mmHg 85%
    01:00 -2°C° 0.2 mm 2 mps 744 mmHg 87%
    02:00 -2°C° 0.6 mm 2 mps 743 mmHg 89%
    03:00 -2°C° 0.6 mm 2 mps 743 mmHg 92%
    04:00 -2°C° 0.6 mm 2 mps 742 mmHg 94%
    05:00 -2°C° 0.8 mm 3 mps 742 mmHg 94%
    06:00 -2°C° 0.8 mm 3 mps 742 mmHg 94%
    07:00 -2°C° 0.8 mm 3 mps 742 mmHg 95%
    08:00 -1°C° 0.7 mm 3 mps 742 mmHg 94%
    09:00 -1°C° 0.7 mm 3 mps 742 mmHg 94%
    10:00 -1°C° 0.7 mm 3 mps 742 mmHg 94%
    11:00 -1°C° 0.8 mm 3 mps 741 mmHg 94%
    12:00 -1°C° 0.8 mm 3 mps 741 mmHg 95%
    13:00 -2°C° 0.8 mm 4 mps 741 mmHg 95%
    14:00 -2°C° 0.8 mm 4 mps 741 mmHg 95%
    15:00 -2°C° 0.8 mm 4 mps 740 mmHg 95%
    16:00 -2°C° 0.8 mm 4 mps 740 mmHg 95%
    17:00 -2°C° 0.5 mm 4 mps 740 mmHg 95%
    18:00 -2°C° 0.5 mm 4 mps 741 mmHg 95%
    19:00 -2°C° 0.5 mm 4 mps 741 mmHg 95%
    20:00 -2°C° 0.4 mm 4 mps 741 mmHg 95%
    21:00 -2°C° 0.4 mm 4 mps 741 mmHg 94%
    22:00 -2°C° 0.4 mm 4 mps 741 mmHg 94%
    23:00 -2°C° 0.4 mm 4 mps 741 mmHg 94%

    Day after tomorrow, 21 February, Wednesday

    Time Temperature Precipitation Wind Pressure Humidity
    00:00 -2°C° 0.4 mm 4 mps 741 mmHg 94%
    01:00 -2°C° 0.4 mm 4 mps 742 mmHg 94%
    02:00 -2°C° 0.3 mm 4 mps 742 mmHg 94%
    03:00 -2°C° 0.3 mm 4 mps 741 mmHg 94%
    04:00 -2°C° 0.3 mm 4 mps 741 mmHg 93%
    05:00 -2°C° 0.2 mm 4 mps 742 mmHg 93%
    06:00 -2°C° 0.2 mm 4 mps 742 mmHg 93%
    07:00 -2°C° 0.2 mm 4 mps 742 mmHg 93%
    08:00 -2°C° 0.3 mm 4 mps 742 mmHg 93%
    09:00 -2°C° 0.3 mm 4 mps 743 mmHg 93%
    10:00 -1°C° 0.3 mm 4 mps 743 mmHg 93%
    11:00 -1°C° 0.2 mm 4 mps 743 mmHg 93%
    12:00 -1°C° 0.2 mm 4 mps 742 mmHg 93%
    13:00 -1°C° 0.2 mm 4 mps 742 mmHg 94%
    14:00 -1°C° 0.1 mm 4 mps 742 mmHg 93%
    15:00 -1°C° 0.1 mm 4 mps 742 mmHg 93%
    16:00 -1°C° 0.1 mm 4 mps 742 mmHg 92%
    17:00 -1°C° 0.2 mm 4 mps 742 mmHg 92%
    18:00 -1°C° 0.2 mm 4 mps 742 mmHg 91%
    19:00 -2°C° 0.2 mm 4 mps 742 mmHg 90%
    20:00 -2°C° 0.6 mm 4 mps 742 mmHg 91%
    21:00 -2°C° 0.6 mm 4 mps 742 mmHg 92%
    22:00 -2°C° 0.6 mm 4 mps 742 mmHg 93%
    23:00 -2°C° 0.6 mm 4 mps 742 mmHg 94%

    22 February, Thursday

    Time Temperature Precipitation Wind Pressure Humidity
    00:00 -2°C° 0.6 mm 4 mps 742 mmHg 94%
    01:00 -3°C° 0.6 mm 4 mps 741 mmHg 94%
    02:00 -3°C° 0.5 mm 4 mps 741 mmHg 94%
    03:00 -3°C° 0.5 mm 4 mps 741 mmHg 94%
    04:00 -4°C° 0.5 mm 5 mps 740 mmHg 94%
    05:00 -4°C° 0.6 mm 5 mps 740 mmHg 94%
    06:00 -4°C° 0.6 mm 5 mps 740 mmHg 94%
    07:00 -4°C° 0.6 mm 5 mps 740 mmHg 94%
    08:00 -4°C° 0.7 mm 5 mps 740 mmHg 94%
    09:00 -4°C° 0.7 mm 5 mps 740 mmHg 94%
    10:00 -2°C° 0.7 mm 5 mps 741 mmHg 94%
    11:00 -2°C° 0.8 mm 5 mps 740 mmHg 95%
    12:00 -2°C° 0.8 mm 5 mps 740 mmHg 95%
    13:00 -2°C° 0.8 mm 5 mps 740 mmHg 96%
    14:00 -2°C° 1.2 mm 4 mps 740 mmHg 96%
    15:00 -2°C° 1.2 mm 4 mps 740 mmHg 96%
    16:00 -2°C° 1.2 mm 4 mps 740 mmHg 96%
    17:00 -2°C° 0.7 mm 4 mps 740 mmHg 95%
    18:00 -2°C° 0.7 mm 4 mps 741 mmHg 95%
    19:00 -2°C° 0.7 mm 4 mps 741 mmHg 95%
    20:00 -2°C° 0.3 mm 4 mps 741 mmHg 94%
    21:00 -2°C° 0.3 mm 4 mps 741 mmHg 94%
    22:00 -1°C° 0.3 mm 3 mps 741 mmHg 94%
    23:00 -2°C° 0.4 mm 4 mps 741 mmHg 94%

    23 February, Friday

    Time Temperature Precipitation Wind Pressure Humidity
    00:00 -2°C° 0.4 mm 4 mps 741 mmHg 94%
    01:00 -2°C° 0.4 mm 4 mps 741 mmHg 94%
    02:00 -2°C° 0.4 mm 4 mps 741 mmHg 94%
    03:00 -2°C° 0.4 mm 4 mps 741 mmHg 94%
    04:00 -2°C° 0.4 mm 4 mps 740 mmHg 94%
    05:00 -3°C° 0.5 mm 4 mps 740 mmHg 94%
    06:00 -3°C° 0.5 mm 4 mps 740 mmHg 94%
    07:00 -4°C° 0.5 mm 5 mps 740 mmHg 94%
    08:00 -4°C° 0.4 mm 5 mps 741 mmHg 94%
    09:00 -4°C° 0.4 mm 5 mps 741 mmHg 94%
    10:00 -2°C° 0.4 mm 5 mps 741 mmHg 93%
    11:00 -2°C° 0.4 mm 5 mps 741 mmHg 94%
    12:00 -2°C° 0.4 mm 5 mps 741 mmHg 94%
    13:00 -2°C° 0.4 mm 5 mps 741 mmHg 94%
    14:00 -2°C° 0.2 mm 5 mps 741 mmHg 93%
    15:00 -2°C° 0.2 mm 5 mps 741 mmHg 92%
    16:00 -1°C° 0.2 mm 5 mps 741 mmHg 91%
    17:00 -2°C° 0.1 mm 5 mps 742 mmHg 89%
    18:00 -3°C° 0.1 mm 6 mps 742 mmHg 87%
    19:00 -4°C° 0.1 mm 6 mps 742 mmHg 85%
    20:00 -4°C° 0.1 mm 6 mps 743 mmHg 84%
    21:00 -5°C° 0.1 mm 6 mps 743 mmHg 84%
    22:00 -7°C° 0.1 mm 7 mps 743 mmHg 83%
    23:00 -8°C° 0 mm 6 mps 744 mmHg 81%

    24 February, Saturday

    Time Temperature Precipitation Wind Pressure Humidity
    00:00 -9°C° 0 mm 6 mps 744 mmHg 80%
    01:00 -10°C° 0 mm 6 mps 744 mmHg 78%
    02:00 -10°C° 0 mm 6 mps 745 mmHg 77%
    03:00 -11°C° 0 mm 6 mps 745 mmHg 76%
    04:00 -12°C° 0 mm 6 mps 746 mmHg 75%
    05:00 -12°C° 0 mm 6 mps 746 mmHg 75%
    06:00 -12°C° 0 mm 6 mps 747 mmHg 76%
    07:00 -13°C° 0 mm 5 mps 748 mmHg 76%
    08:00 -12°C° 0 mm 6 mps 748 mmHg 75%
    09:00 -11°C° 0 mm 6 mps 749 mmHg 74%
    10:00 -11°C° 0 mm 7 mps 749 mmHg 73%
    11:00 -9°C° 0 mm 7 mps 749 mmHg 72%
    12:00 -9°C° 0 mm 7 mps 749 mmHg 71%
    13:00 -8°C° 0 mm 7 mps 749 mmHg 71%
    14:00 -8°C° 0 mm 6 mps 749 mmHg 72%
    15:00 -8°C° 0 mm 5 mps 748 mmHg 73%
    16:00 -8°C° 0 mm 5 mps 748 mmHg 74%
    17:00 -9°C° 0 mm 4 mps 749 mmHg 75%
    18:00 -10°C° 0 mm 4 mps 749 mmHg 77%
    19:00 -10°C° 0 mm 3 mps 749 mmHg 79%
    20:00 -12°C° 0 mm 3 mps 749 mmHg 79%
    21:00 -13°C° 0 mm 3 mps 749 mmHg 80%
    22:00 -12°C° 0 mm 2 mps 749 mmHg 80%
    23:00 -13°C° 0 mm 2 mps 749 mmHg 80%
    Show more